EW8080 Weather Reports


time (UTC)temp
C
wind
direction
speed
KPH
gust
KPH
rain 1hr
cm
rain 24hr
cm
rain mn
cm
humidity
%
barometer
mb
20260505070003 10 190 6.4 20.9 0.00 0.00 0.00 88 1012.3
20260505065003 10 220 6.4 12.9 0.00 0.00 0.00 87 1012.3
20260505064003 10 214 4.8 12.9 0.00 0.00 0.00 87 1012.3
20260505063003 10 215 8.0 14.5 0.00 0.00 0.00 87 1012.3
20260505062003 10 222 8.0 14.5 0.00 0.00 0.00 87 1012.3
20260505061003 10 215 6.4 17.7 0.00 0.00 0.00 87 1012.3
20260505060003 10 207 9.7 19.3 0.00 0.00 0.00 87 1012.3
20260505055003 10 199 9.7 22.5 0.00 0.00 0.00 87 1012.3
20260505054024 10 206 9.7 22.5 0.00 0.00 0.00 87 1012.2
20260505053003 10 213 11.3 22.5 0.00 0.00 0.00 87 1012.1
20260505052003 10 225 11.3 22.5 0.00 0.00 0.00 87 1012.3
20260505051003 10 225 8.0 16.1 0.00 0.00 0.00 87 1012.3
20260505041003 10 207 8.0 22.5 0.00 0.00 0.00 84 1012.7
20260505040004 10 202 11.3 25.7 0.00 0.00 0.00 84 1012.8
20260505035003 10 206 12.9 25.7 0.00 0.00 0.00 85 1012.8
20260505034003 10 215 9.7 16.1 0.00 0.00 0.00 83 1012.8
20260505033024 11 203 8.0 25.7 0.00 0.00 0.00 82 1012.8
20260505032003 11 187 9.7 25.7 0.00 0.00 0.00 83 1012.9
20260505031003 11 210 12.9 19.3 0.00 0.00 0.00 81 1013.0
20260505030003 11 190 11.3 19.3 0.00 0.00 0.00 82 1013.0
20260505025024 11 197 9.7 19.3 0.00 0.00 0.00 81 1013.0
20260505024003 11 212 11.3 29.0 0.00 0.00 0.00 81 1012.8
20260505023003 11 220 16.1 29.0 0.00 0.00 0.00 81 1012.9
20260505022003 11 220 14.5 27.4 0.00 0.00 0.00 80 1013.0
20260505021002 11 223 12.9 27.4 0.00 0.00 0.00 80 1013.0
20260505020003 11 226 11.3 27.4 0.00 0.00 0.00 79 1012.8
20260505015024 11 229 12.9 27.4 0.00 0.00 0.00 79 1012.9
20260505014003 11 238 16.1 27.4 0.00 0.00 0.00 78 1012.8
20260505013003 11 235 14.5 30.6 0.00 0.00 0.00 77 1012.5
20260505012024 11 222 12.9 30.6 0.00 0.00 0.00 76 1012.4
20260505011003 11 222 17.7 30.6 0.00 0.00 0.00 76 1012.3
20260505010003 12 226 14.5 38.6 0.00 0.00 0.00 74 1012.1
20260505005003 12 227 14.5 40.2 0.00 0.00 0.00 73 1012.1
20260505004003 12 237 12.9 40.2 0.00 0.00 0.00 72 1011.9
20260505003003 12 234 20.9 38.6 0.00 0.00 0.00 71 1011.5
20260505002003 12 237 20.9 37.0 0.00 0.00 0.00 70 1011.5
20260505001024 12 236 22.5 32.2 0.00 0.00 0.00 70 1011.2
20260505000024 12 230 16.1 40.2 0.00 0.00 0.00 70 1011.5
20260504235003 12 232 14.5 40.2 0.00 0.00 0.00 69 1011.1
20260504234024 12 229 20.9 40.2 0.00 0.00 0.00 69 1010.9
20260504233003 12 234 17.7 38.6 0.00 0.00 0.00 69 1010.9
20260504232003 13 241 19.3 40.2 0.00 0.00 0.00 68 1010.7
20260504231003 13 231 17.7 40.2 0.00 0.00 0.00 67 1010.8
20260504230024 13 224 20.9 40.2 0.00 0.00 0.00 65 1010.7
20260504225003 13 223 20.9 32.2 0.00 0.00 0.00 64 1010.5
20260504224003 14 224 22.5 32.2 0.00 0.00 0.00 63 1010.6
20260504223003 14 225 20.9 32.2 0.00 0.00 0.00 61 1010.4
20260504222003 15 224 14.5 37.0 0.00 0.00 0.00 61 1010.3
20260504221003 15 226 20.9 49.9 0.00 0.00 0.00 59 1010.5
20260504220003 15 229 25.7 49.9 0.00 0.00 0.00 58 1010.3
20260504215003 15 217 20.9 38.6 0.00 0.00 0.00 57 1010.5
20260504214003 16 225 19.3 41.8 0.00 0.00 0.00 57 1010.5
20260504213024 16 234 22.5 41.8 0.00 0.00 0.00 55 1010.2
20260504212003 16 224 19.3 40.2 0.00 0.00 0.00 56 1010.3
20260504211003 16 212 17.7 43.5 0.00 0.00 0.00 56 1010.2
20260504210003 17 217 25.7 45.1 0.00 0.00 0.00 53 1010.2
20260504205003 17 240 24.1 45.1 0.00 0.00 0.00 52 1010.2
20260504204003 17 230 17.7 35.4 0.00 0.00 0.00 51 1010.1
20260504203003 17 223 14.5 49.9 0.00 0.00 0.00 52 1010.0
20260504202024 17 213 24.1 49.9 0.00 0.00 0.00 50 1010.1
20260504201003 18 223 27.4 49.9 0.00 0.00 0.00 45 1010.1
20260504200003 18 229 19.3 43.5 0.00 0.00 0.00 44 1010.1
20260504195003 18 238 32.2 43.5 0.00 0.00 0.00 41 1010.1
20260504194003 18 215 27.4 56.3 0.00 0.00 0.00 43 1010.3
20260504193003 19 226 24.1 56.3 0.00 0.00 0.00 44 1010.1
20260504192003 20 222 27.4 46.7 0.00 0.00 0.00 42 1010.1
20260504191003 20 232 19.3 53.1 0.00 0.00 0.00 42 1010.2
20260504190024 20 233 24.1 53.1 0.00 0.00 0.00 41 1010.3
20260504185024 20 223 25.7 51.5 0.00 0.00 0.00 43 1010.1
20260504184003 20 222 25.7 51.5 0.00 0.00 0.00 45 1010.3
20260504183003 20 217 24.1 43.5 0.00 0.00 0.00 47 1010.4
20260504182003 20 218 22.5 43.5 0.00 0.00 0.00 48 1010.2
20260504181003 20 223 22.5 40.2 0.00 0.00 0.00 48 1010.2
20260504180003 20 220 20.9 41.8 0.00 0.00 0.00 48 1010.1
20260504175003 20 229 19.3 41.8 0.00 0.00 0.00 46 1010.2
20260504174003 20 211 29.0 41.8 0.00 0.00 0.00 43 1010.1
20260504173003 20 206 27.4 37.0 0.00 0.00 0.00 44 1010.2
20260504172024 20 233 22.5 40.2 0.00 0.00 0.00 41 1010.4
20260504171003 21 231 27.4 53.1 0.00 0.00 0.00 37 1010.4
20260504151024 20 208 20.9 35.4 0.00 0.00 0.00 49 1011.2
20260504141003 21 218 19.3 37.0 0.00 0.00 0.00 38 1011.6
20260504082003 7 219 4.8 8.0 0.00 0.03 0.00 70 1011.6
20260504081003 7 215 6.4 9.7 0.00 0.03 0.00 70 1011.6